Hourly Data Report for May 21, 2016

All times are specified in Local Standard Time (LST). Add 1 hour to adjust for Daylight Saving Time where and when it is observed.

LA RONGE RCS
SASKATCHEWAN

55°08'47.020" N
105°16'13.030" W
378.60 m
4064149
71586
XOX

Download Data

Hourly Data (May 2016)
Hourly Data Report for May 21, 2016
TIME Temp Definition
°C
Dew Point Definition
°C
Rel Hum Definition
%
Wind Dir Definition
10's deg

Wind Spd Definition
km/h
Visibility Definition
km
Stn Press Definition
kPa
Hmdx Definition


Wind Chill Definition


Weather Definition


00:00 11.2 5.4 67 8 9   97.23     LegendNANA
01:00 9.7 5.6 75 7 10   97.21     LegendNANA
02:00 10.6 5.5 70 9 8   97.18     LegendNANA
03:00 11.4 5.6 67 9 10   97.15     LegendNANA
04:00 9.3 5.6 78 6 6   97.14     LegendNANA
05:00 8.0 5.7 85 6 7   97.12     LegendNANA
06:00 8.7 6.1 84 5 7   97.12     LegendNANA
07:00 9.9 6.3 78 6 8   97.10     LegendNANA
08:00 12.1 6.8 70 5 11   97.07     LegendNANA
09:00 14.7 7.1 60 11 12   97.00     LegendNANA
10:00 15.0 7.3 60 5 12   96.91     LegendNANA
11:00 17.4 8.1 54 5 14   96.80     LegendNANA
12:00 20.9 4.8 35 16 19   96.71     LegendNANA
13:00 21.6 4.7 33 16 22   96.60     LegendNANA
14:00 22.8 5.1 32 15 18   96.52     LegendNANA
15:00 23.8 3.9 27 14 21   96.41     LegendNANA
16:00 23.9 5.0 29 15 20   96.34     LegendNANA
17:00 23.3 5.1 31 16 16   96.25     LegendNANA
18:00 24.4 4.7 28 15 12   96.17     LegendNANA
19:00 21.0 6.1 38 17 9   96.18     LegendNANA
20:00 20.1 10.3 53 28 5   96.14     LegendNANA
21:00 19.0 9.5 54 14 1   96.10     LegendNANA
22:00 17.9 9.4 57 7 3   96.02     LegendNANA
23:00 15.4 8.5 63 6 5   95.96     LegendNANA

Notes on Data Quality.

Legend

  • E = Estimated
  • M = Missing
  • NA = Not Available
Date modified: